Regional Weather Roundup
Issued by NWS

Home | Current Version | Previous Version | Graphics & Text | Print | Product List | Glossary On
Versions: 1 2 3 4 5 6 7 8 9 10 11 12 13 14 15 16 17 18 19 20 21 22 23 24 25 26 27 28 29 30 31 32 33 34 35 36 37 38 39 40 41 42 43 44 45 46 47 48 49 50
557
ASUS43 KFSD 242210
RWRSD

WEATHER ROUNDUP FOR SOUTH DAKOTA
NATIONAL WEATHER SERVICE SIOUX FALLS SD
500 PM CDT TUE APR 24 2018

NOTE: "FAIR" INDICATES FEW OR NO CLOUDS BELOW 12,000 FEET WITH NO
SIGNIFICANT WEATHER AND/OR OBSTRUCTIONS TO VISIBILITY.


SDZ001>005-009-010-012>017-242300-
NORTHWEST AND NORTH CENTRAL SOUTH DAKOTA

CITY           SKY/WX    TMP DP  RH WIND       PRES   REMARKS
BUFFALO          N/A     53  22  29 W9        30.36F
FAITH            N/A     53  29  39 N13       30.39F
MOBRIDGE       SUNNY     57  31  37 N18       30.35F
$$

SDZ012>016-024>037-041>051-057-063-072>074-242300-
SOUTHWEST AND SOUTH CENTRAL SOUTH DAKOTA

CITY           SKY/WX    TMP DP  RH WIND       PRES   REMARKS
RAPID CTY ARPT PTSUNNY   50  26  39 N20G25    30.42F
PIERRE         CLOUDY    42  38  85 W10       30.38F
CUSTER         CLOUDY    40  14  34 NE8       30.38F
ELLSWORTH AFB  PTSUNNY   49  22  35 N16G28    30.41F
PHILIP         CLOUDY    44  35  70 NW6       30.43F
PINE RIDGE     CLOUDY    41  31  67 N13G21    30.43F
SPEARFISH      FAIR      43  27  52 N8        30.44F
WINNER         LGT RAIN  41  36  82 N16       30.38R
$$

SDZ004>011-016>023-039-040-242300-
NORTHEAST SOUTH DAKOTA

CITY           SKY/WX    TMP DP  RH WIND       PRES   REMARKS
ABERDEEN       SUNNY     54  33  45 N18G29    30.34F
WATERTOWN      CLOUDY    48  35  60 N17       30.28F
BROOKINGS      CLOUDY    44  38  79 N18G26    30.27F
SISSETON         N/A     54  36  50 N22G30    30.31S
$$

SDZ017-020-022-023-036>040-048>070-242300-
SOUTHEAST SOUTH DAKOTA

CITY           SKY/WX    TMP DP  RH WIND       PRES   REMARKS
SIOUX FALLS    CLOUDY    46  40  79 N21G31    30.25R
HURON          CLOUDY    45  37  73 N13G24    30.33S
CHAMBERLAIN    CLOUDY    42  40  93 N13       30.37R
MITCHELL       CLOUDY    45  40  82 N20       30.32S
YANKTON        LGT RAIN  47  43  86 N8        30.25R
$$

ABBREVIATIONS USED IN REMARKS
   TC - TEMPERATURE IN CELSIUS
  WCI - WIND CHILL INDEX
   HX - HEAT INDEX
  VSB - VISIBILITY





USA.gov is the U.S. government's official web portal to all federal, state and local government web resources and services.